Showing default

FLOCK 4Q 28, 58280

Orbit data source: Space-Track

FLOCK 4Q 28, 58280 is a payload satellite owned by Planet (US) in SSO that was launched on Sat, 11 Nov 2023 UTC via an FALCON 9 launch vehicle from the Air Force Western Test Range (AFWTR). Payloads include a variety of satellites, spacecraft, and rockets equipped with specific instruments for various scientific and technological missions. These include communications satellites like Starlink; space stations such as the ISS; scientific satellites like the Hubble; Earth observation satellites from companies like Planet Labs, Umbra, and HawkEye 360; GPS; miniature CubeSats for education and research; and military/defense satellites.

Loading next visibility...
FLOCK 4Q 28 details
Identifier
58280, 2023-174AA
Orbit
SSO
Last TLE update22 hours ago
Origin
Flag of USPlanet (US)
ManufacturerPlanet
MissionOperational Commercial Imaging
Bus & MotorCUBESAT 3U, Unknown motor
Mass5.7 kg wet, 5.7 kg dry
Launch date (UTC)
2023-11-11 (1 year ago)
Launch vehicle
FALCON 9
Launch site
Air Force Western Test Range (AFWTR)
Object type
Payload
Rocket body
Debris
Shape & HBRBox + 2 Pan, 0.3 m
Radar Cross Section0.035 m², Medium (>0.1 m² and < 1m²)

Expand to show TLE details & history

TLE from 22 hours ago
0 FLOCK 4Q 28
1 58280U 23174AA  24355.74419411  .00016799  00000-0  62490-3 0  9996
2 58280  97.4396  69.1279 0007981 302.9462  57.1009 15.27550363 62117
Epoch: 2024-12-20T17:51Z
Definitive object data (Epoch: 2024-12-20T17:51:38.371Z)
Latitude-0.00001°
Longitude71.41271°
Altitude483.266 km
Speed7.625 km/s
True Right ascension04h 36m 30s
True Declination0° 00' 00"
Sunlit
Object was in full shadow at TLE epoch
Visualization TLE readout
Latitude75.55618°
Longitude42.06514°
Altitude500.005 km
Speed7.619 km/s
Apparent Right ascension03h 05m 38s
Apparent Declination21° 14' 55"
Sunlit
Object is in full shadow
Visualization observer readout
Local Sidereal Time15:14:56
Azimuth2.472° NNE
Elevation-28.797°
Doppler factor1
Orbital elements
Apogee altitude485.569 km
Perigee altitude474.622 km
Semi-major axis6,858.232 km
Eccentricity0.0007981
Inclination97.4396°
RAAN69.1279°
Arg. of periapsis302.9462°
True anomaly57.17773°
Mean anomaly57.1009°
Eccentric anomaly57.13931°
Mean motion3.82142 °/min
BSTAR0.0006249
Orbital period94.21 mins
Loading maneuver chart data...
Loading historical data...
Loading historical data...
Loading historical data...
Loading historical data...
Loading historical data...
Loading historical data...
Loading historical data...

FLOCK 4Q 28 Visibility forecast

Observer location: undefined°, undefined

Span
Click to sort rows by Start time (UTC) header in descending order
Start Az.
Max El. time (UTC)
Max El. Az.
Max El.
End time (UTC)
End Az.
6 mins2024-12-21 18:00:30.947Z11.794° NNE2024-12-21 18:03:30.947Z195.082° SSW43.397°2024-12-21 18:06:30.947Z193.329° SSW
4 mins2024-12-22 04:36:30.947Z109.879° ESE2024-12-22 04:37:30.947Z82.761° E25.746°2024-12-22 04:40:30.947Z14.302° NNE
|